Theta_e
321 321 321 321 321 321 321 321 322 322 321 320 321 321 321 321 321 321 321 322 322 322 322 322 323 325 325 329 330 344 352 345 333 338 346 344 341 339 334 334 335 333 331 332 334 335 335
321 321 321 321 321 320 320 320 321 321 321 320 320 320 320 320 320 320 321 321 321 320 321 322 323 324 328 321 338 343 337 334 340 343 346 346 342 343 340 336 332 333 333 332 332 334 336
320 320 320 320 320 320 320 320 320 320 320 320 319 320 320 319 319 319 320 319 319 320 321 323 324 326 322 324 335 346 340 339 343 348 345 347 345 341 339 335 338 335 329 331 332 333 333
320 320 320 320 320 319 319 319 319 319 319 319 319 319 319 318 318 318 318 318 318 320 324 326 325 327 322 330 336 344 341 340 346 351 350 348 346 340 337 340 335 329 330 322 329 331 334
319 319 319 319 319 319 319 318 319 318 318 317 317 317 316 316 316 316 316 316 319 322 327 325 326 325 322 329 330 343 342 341 347 349 348 346 342 337 336 330 326 327 318 318 324 331 330
319 318 318 319 318 318 318 318 317 316 316 316 316 316 315 315 316 315 315 317 322 322 326 329 326 320 324 324 334 341 346 348 344 343 340 338 336 331 331 327 315 320 320 321 321 326 327
318 318 318 318 318 318 318 317 316 316 316 316 315 315 314 314 315 314 317 323 320 320 323 319 321 321 324 331 336 340 347 344 339 337 331 333 328 323 325 326 322 326 322 321 323 327 326
317 317 317 317 317 317 317 316 316 315 315 315 315 314 314 314 314 313 317 318 320 319 314 323 321 322 326 329 326 334 347 334 333 327 331 327 322 328 329 327 326 324 322 321 323 325 326
316 316 318 317 317 317 316 315 315 315 315 314 314 314 313 313 312 316 320 319 324 324 314 317 320 320 322 325 324 328 337 336 331 327 327 323 325 330 326 326 323 324 320 321 319 323 324
317 317 316 316 316 316 315 315 314 314 314 314 314 313 312 311 312 322 317 324 324 324 309 312 315 318 322 324 321 332 336 333 329 326 328 325 329 326 325 324 325 320 324 322 320 318 313
317 317 315 315 316 315 314 314 314 314 314 313 313 313 311 310 316 316 321 324 325 322 300 314 315 323 323 319 325 325 334 333 325 325 328 323 325 323 323 325 326 320 324 323 321 319 319
317 317 316 315 315 315 313 313 313 313 313 312 312 311 311 319 320 321 324 323 322 308 300 311 314 313 315 318 321 327 326 333 331 325 327 326 331 327 326 330 325 327 322 323 323 319 312
317 317 317 316 315 314 313 313 313 312 312 312 312 311 311 317 319 323 323 319 307 302 313 311 311 313 313 314 317 323 321 322 320 316 317 322 323 325 327 324 328 324 320 313 311 311 310
317 317 317 316 315 314 314 313 313 312 312 311 310 310 315 318 322 321 320 312 302 309 310 315 312 313 310 315 316 319 319 319 323 322 318 315 314 322 326 323 322 323 321 314 307 308 309
316 317 316 315 314 314 313 313 312 312 311 310 309 323 321 323 321 322 314 304 306 310 311 310 311 309 310 314 316 318 319 320 323 324 317 315 316 326 327 325 323 322 319 324 316 316 312
316 316 316 315 315 314 313 312 312 311 311 310 315 319 319 325 324 318 310 303 310 312 312 312 308 311 309 312 314 317 318 323 322 326 329 322 315 322 322 323 324 321 325 316 316 307 306
316 316 315 315 315 314 314 313 311 311 310 309 317 313 324 326 324 313 304 307 311 314 313 311 310 309 311 312 315 315 317 322 324 324 328 324 320 317 320 315 314 315 314 317 317 314 308
315 315 315 315 315 314 314 313 311 310 309 312 318 308 323 324 309 310 307 310 303 311 313 310 312 311 309 312 311 314 316 320 322 322 317 322 319 315 317 321 321 319 317 316 310 310 312
315 315 315 314 315 315 314 313 312 310 309 313 316 315 323 319 304 307 311 311 311 309 309 309 308 312 313 310 309 313 314 322 321 319 316 320 316 312 313 317 319 314 316 317 316 316 311
314 314 314 315 315 315 315 314 313 311 310 312 317 309 316 315 314 310 310 309 308 311 309 311 311 312 310 310 314 313 313 315 317 318 326 320 316 313 309 312 316 313 314 315 313 309 309
313 313 313 314 314 314 315 314 313 312 310 312 318 313 318 309 309 311 311 310 308 307 313 313 311 311 310 308 310 311 315 315 316 317 317 316 310 313 313 314 314 314 313 314 312 313 310
312 312 312 313 313 314 314 314 314 311 308 315 311 312 317 314 316 312 307 310 310 311 312 312 310 311 312 309 311 311 314 315 315 317 315 317 310 313 311 314 314 311 313 313 313 313 314
313 312 312 312 313 313 313 313 313 310 309 313 315 316 313 309 312 310 310 310 311 313 314 315 314 312 311 312 315 316 318 318 319 317 315 315 312 311 307 312 312 308 312 313 314 315 315
313 313 312 312 312 313 314 313 313 312 309 314 314 314 310 306 310 310 311 313 312 313 312 314 315 314 317 322 320 318 317 317 318 318 320 316 315 313 309 311 302 313 318 317 315 315 317
312 312 312 312 313 312 313 313 313 312 311 314 316 313 311 306 308 307 310 312 313 315 314 314 316 319 321 318 312 310 309 310 312 315 316 318 315 311 307 306 310 312 315 315 313 313 318
312 312 312 312 312 312 312 313 313 313 311 314 316 317 313 307 307 309 306 309 309 311 313 315 320 321 319 315 310 306 304 307 307 309 316 317 317 311 310 305 302 313 317 320 320 309 320
312 312 312 312 312 311 312 312 313 313 311 312 316 319 312 307 312 311 306 306 312 312 311 316 316 316 319 313 308 306 306 312 306 307 309 311 311 307 307 305 308 315 319 321 306 311 325
311 311 311 311 311 311 311 312 312 313 313 312 315 319 312 308 311 313 312 309 309 311 310 315 313 314 314 311 310 310 309 313 310 313 311 310 308 307 308 305 302 321 317 312 323 328 328
312 311 311 311 311 311 312 312 312 312 312 312 313 319 318 309 311 315 315 315 315 314 312 314 314 315 317 314 314 314 310 313 311 306 316 309 313 310 311 311 325 324 322 325 328 327 328
Wind_Speed
15 15 15 15 15 16 16 16 16 16 16 17 17 18 19 19 18 17 17 17 17 16 15 15 15 13 11 10 4 9 9 9 11 13 13 8 7 11 12 6 6 12 5 2 6 8 5
15 15 16 16 16 16 17 17 17 17 17 18 18 18 19 19 19 18 18 18 18 17 16 15 13 12 10 15 5 12 13 13 14 13 7 11 5 6 8 13 6 4 7 4 5 10 6
15 16 16 16 16 17 17 18 18 18 18 19 19 19 19 20 20 19 19 19 19 18 16 14 11 8 12 14 1 10 12 13 12 13 7 2 7 12 6 11 4 10 14 12 12 10 13
16 16 16 16 17 17 18 18 18 19 19 20 20 20 20 21 21 21 21 20 20 18 16 12 7 10 10 5 4 9 12 10 9 8 7 3 7 12 11 7 14 15 18 5 12 15 11
16 16 17 17 17 18 19 19 19 19 20 20 21 21 22 22 22 22 22 22 19 14 8 5 9 10 15 5 11 13 14 14 13 8 4 5 11 11 9 16 15 11 23 22 14 5 6
16 17 17 18 18 18 19 19 20 21 21 21 21 22 23 23 22 22 26 21 6 8 8 9 10 10 14 14 13 14 14 12 13 10 9 10 9 12 13 16 10 9 19 8 9 12 8
16 16 17 18 18 19 19 20 20 20 21 21 22 22 23 24 23 21 18 7 8 10 15 15 8 18 8 6 9 14 14 13 10 12 15 9 11 15 15 23 11 19 2 10 6 3 10
16 17 17 17 17 17 18 19 20 21 21 21 22 23 24 24 24 22 10 9 8 8 10 19 19 13 2 9 13 17 17 14 14 14 12 5 14 6 8 8 11 9 11 10 7 7 14
17 17 16 17 17 18 19 20 21 21 21 22 23 23 25 25 27 11 12 12 5 9 10 16 21 21 16 13 16 19 20 19 16 17 15 10 8 4 4 9 16 16 10 8 5 10 13
16 16 17 18 18 18 20 21 21 22 23 22 23 23 24 30 8 7 11 5 7 6 9 14 18 14 22 16 18 17 21 20 12 17 12 12 17 5 11 16 17 11 1 4 6 11 8
16 16 18 17 18 18 20 21 22 23 23 23 23 22 22 15 14 8 8 5 8 7 9 16 16 5 16 22 14 22 20 21 19 14 14 12 18 10 16 17 10 7 3 9 6 11 14
16 16 15 17 18 19 21 21 22 23 23 24 23 22 21 6 9 14 9 7 7 10 11 11 11 14 20 21 23 20 20 22 16 17 14 12 14 15 17 16 9 11 8 11 14 12 13
16 16 16 16 17 18 19 20 22 24 25 25 23 22 14 10 3 4 6 9 10 12 9 10 14 18 21 19 25 15 24 24 18 18 18 19 15 11 10 9 14 13 15 13 13 12 10
17 17 17 17 16 18 19 20 22 23 25 26 27 28 9 13 9 12 8 11 12 9 17 6 4 15 21 22 25 22 22 21 25 21 14 14 18 21 18 15 14 18 19 15 7 10 6
17 18 17 17 17 19 19 22 25 25 25 27 34 7 9 8 14 7 10 14 14 15 5 2 8 12 18 22 19 23 24 23 24 25 21 13 20 12 25 14 21 18 17 16 17 15 13
17 17 18 19 19 19 20 23 24 27 27 26 8 9 10 9 11 10 11 18 18 2 5 9 15 13 15 20 19 24 21 21 23 25 22 17 16 17 13 8 15 17 16 12 12 16 18
17 18 18 19 20 19 20 21 24 25 29 27 8 7 8 10 9 10 13 18 20 6 6 10 10 6 12 13 21 20 23 18 19 18 20 20 18 11 17 12 16 14 17 17 18 13 13
17 17 18 19 19 20 20 20 22 23 29 12 8 9 8 10 11 12 15 21 7 12 8 13 7 12 10 12 9 21 19 19 16 13 16 20 14 16 16 14 19 21 18 21 16 18 12
18 18 18 18 19 20 21 20 20 19 17 10 7 5 8 10 9 14 19 16 8 11 16 11 14 11 3 9 8 13 18 12 11 10 12 12 17 17 16 16 14 10 15 16 17 15 16
18 19 19 19 19 20 21 22 21 20 18 7 6 6 7 9 13 16 14 17 16 13 18 13 12 13 10 12 10 6 14 7 4 11 5 7 14 15 14 15 5 20 18 18 18 14 14
17 18 18 19 19 20 21 22 23 23 23 6 7 3 7 5 13 15 17 10 17 14 11 10 14 17 16 15 15 14 11 13 8 7 8 14 16 18 21 21 5 11 10 10 13 16 17
17 18 19 18 18 19 20 21 23 25 32 7 7 6 8 13 10 12 11 12 14 13 9 11 15 15 14 18 17 14 15 14 14 12 15 17 17 15 13 13 13 12 15 13 15 13 15
17 17 18 18 17 18 19 20 20 20 24 6 8 7 6 7 11 11 11 16 12 13 7 10 10 6 11 10 13 15 15 16 11 16 16 17 14 14 13 17 20 18 10 15 15 15 13
17 17 17 18 18 18 18 18 18 15 15 9 7 8 8 11 8 9 10 10 12 12 13 4 4 8 7 8 10 13 15 17 15 12 11 16 15 11 12 14 20 11 1 3 9 15 17
17 17 17 17 18 19 19 17 16 15 13 11 5 6 7 9 10 9 10 10 12 10 10 12 12 7 5 9 11 15 15 19 21 19 17 15 11 12 15 15 15 16 9 14 14 14 9
17 17 18 18 18 18 18 18 16 14 13 10 7 4 7 8 0 9 10 10 11 12 14 16 10 7 9 9 12 16 13 13 18 18 13 13 16 12 13 16 18 14 15 12 9 8 13
17 18 17 17 18 18 17 17 16 15 13 10 7 3 6 9 14 6 7 8 5 8 10 3 4 8 11 9 12 12 14 16 16 19 13 13 16 14 15 16 17 12 11 8 9 8 12
17 18 17 18 18 18 18 16 16 14 13 9 9 3 7 8 17 18 16 12 9 7 9 6 6 11 7 10 11 9 10 7 8 10 10 13 13 12 15 16 20 11 1 4 9 8 8
17 17 18 17 18 18 17 16 15 13 12 9 7 2 4 8 11 18 17 20 15 14 10 7 8 6 7 6 7 7 6 4 2 9 10 10 10 8 9 7 7 4 7 3 5 7 3
Wind_Direction
14 12 10 9 6 2 0 358 356 353 349 347 346 343 340 336 334 331 326 321 318 315 311 305 305 314 291 237 264 120 151 179 215 224 239 211 246 237 249 273 209 254 57 163 145 120 15
13 11 8 7 4 1 359 357 355 352 346 346 344 340 336 334 332 329 325 319 315 310 304 297 298 308 250 263 60 136 183 181 220 217 206 241 292 349 293 263 243 60 265 231 190 115 168
10 8 6 3 1 359 358 356 353 349 346 345 341 338 335 333 332 328 323 317 310 305 297 287 281 270 265 266 342 162 193 203 211 224 217 287 303 277 344 240 263 271 234 192 178 155 151
8 5 2 0 359 357 355 353 350 347 346 344 341 338 334 333 332 328 321 314 306 299 290 268 245 250 269 113 248 190 195 202 204 226 295 317 266 276 250 285 251 232 239 278 138 181 123
6 4 1 358 357 355 353 349 347 347 346 344 341 339 337 335 331 326 317 311 297 286 285 196 219 235 263 128 206 198 198 187 189 209 213 295 259 267 243 236 216 198 113 235 146 250 149
5 2 359 357 355 352 349 347 348 345 342 340 339 337 334 331 327 324 317 299 324 267 231 217 267 261 230 218 189 176 195 212 196 199 210 239 240 245 216 237 231 252 211 125 146 168 238
3 2 358 354 352 349 347 347 344 341 340 339 337 335 331 327 323 323 321 225 209 198 214 239 207 224 142 119 152 182 185 207 200 208 225 192 249 225 226 129 260 270 248 93 67 102 232
360 358 354 351 348 344 345 344 342 340 339 337 335 333 329 324 317 316 281 252 37 346 283 220 246 242 243 188 190 191 184 207 202 215 199 183 241 245 338 317 256 209 226 132 140 184 237
358 354 349 351 348 342 344 342 340 338 337 336 334 332 329 322 316 281 243 286 341 324 260 251 220 222 210 208 223 184 193 207 202 227 175 224 236 36 194 255 250 204 234 144 178 164 241
359 354 351 348 343 341 343 340 338 337 335 333 331 330 330 326 290 335 256 176 276 293 271 203 199 223 210 202 226 207 197 206 211 223 195 207 243 175 219 260 246 226 166 274 239 246 228
354 352 352 348 344 342 341 338 336 334 333 330 327 327 325 322 313 260 40 267 307 233 265 130 163 145 193 200 196 208 189 214 220 200 232 197 234 165 240 242 247 70 208 239 267 272 272
348 343 348 349 345 345 340 337 334 332 329 327 322 321 327 236 206 264 305 279 237 232 246 157 160 196 201 201 231 177 198 223 224 238 203 247 273 201 219 231 276 318 255 230 237 249 266
344 344 337 342 348 344 339 338 334 332 328 324 313 307 295 303 242 9 265 241 224 246 102 179 183 186 204 189 211 186 191 200 214 218 218 211 210 233 241 227 232 273 253 233 218 213 237
344 344 343 343 342 341 337 334 337 333 328 321 313 306 230 221 228 247 244 225 247 246 241 79 267 183 205 200 206 182 202 205 213 220 216 209 212 212 204 216 242 215 243 264 260 269 288
345 344 344 342 342 341 337 339 338 335 330 323 310 210 221 222 224 241 231 225 217 250 345 282 197 242 203 214 199 204 213 210 207 222 228 216 230 224 208 189 216 247 255 275 299 303 284
345 345 343 342 340 338 342 343 340 337 329 329 302 271 239 150 173 209 229 241 242 251 323 248 259 202 220 206 201 206 207 217 215 208 231 243 259 190 171 217 236 232 275 235 231 260 279
348 347 347 343 340 338 338 341 344 341 330 327 254 235 97 163 190 217 223 233 236 205 241 265 266 280 267 218 209 221 214 214 218 226 212 234 250 216 175 194 226 199 238 252 277 278 269
345 344 344 343 341 338 336 340 344 341 336 305 283 236 133 175 201 219 225 237 279 241 201 252 251 281 294 288 251 219 221 228 182 234 231 223 242 233 241 209 227 245 241 218 239 234 256
341 342 341 341 342 342 339 337 340 344 356 310 272 285 148 214 227 227 221 247 253 235 241 229 232 245 278 260 243 256 248 230 151 192 243 230 224 248 234 237 206 234 250 266 274 263 254
343 341 342 342 341 343 342 339 336 340 346 289 271 233 159 206 259 287 246 214 233 222 261 257 259 266 257 252 243 259 244 120 194 218 44 286 242 228 245 242 278 212 214 241 247 253 253
343 344 342 342 344 344 343 343 342 337 337 279 237 291 24 193 220 235 260 256 226 217 205 234 237 243 247 244 249 212 241 199 207 176 218 234 245 255 259 270 169 278 238 231 246 271 273
346 348 348 346 343 345 345 345 347 341 333 250 316 342 353 285 298 282 231 242 251 236 217 218 225 267 221 238 256 250 225 238 194 179 227 213 231 252 265 262 264 253 262 251 267 273 259
340 343 345 346 348 348 349 346 349 353 338 325 6 294 269 284 252 240 243 235 242 255 240 245 294 269 263 253 291 279 307 299 244 201 203 231 233 239 239 246 248 236 251 266 264 256 262
338 339 342 345 344 345 346 349 348 354 354 316 349 303 270 266 252 264 256 299 267 244 250 174 228 251 272 320 290 270 269 265 272 275 245 216 247 265 261 250 249 256 204 334 303 298 297
334 334 338 338 341 343 344 346 345 343 342 316 313 314 310 285 287 288 279 251 264 263 247 259 260 277 317 262 247 239 230 231 234 233 244 257 247 230 254 254 258 261 229 227 254 265 285
329 331 333 334 336 340 341 341 341 338 342 313 310 321 285 297 274 355 300 285 271 246 224 223 235 266 274 250 219 235 225 225 214 222 225 244 259 257 257 255 256 280 304 40 9 277 261
329 328 329 331 333 334 336 339 338 340 340 317 290 326 277 285 269 318 274 311 273 279 286 271 179 246 228 249 242 225 229 241 220 215 185 215 245 234 240 254 265 288 41 25 279 331 332
329 328 329 330 330 330 331 333 331 335 340 323 311 6 301 294 295 288 282 271 272 246 269 47 257 215 257 234 240 242 252 222 229 260 217 207 220 226 251 265 261 42 141 277 26 336 343
327 328 330 328 326 328 327 325 324 326 327 329 282 58 306 265 289 318 289 278 270 276 297 291 327 310 4 282 243 259 267 234 245 252 196 243 287 328 323 0 124 2 354 16 310 285 267